Location: Molveno
(46.1500°N, 10.9667°E)
Time: 17:01:15
(UTC+00:00)

ATLAS 2AS CENTAUR R/B - Pass Details

Date: 05 July 2020
Orbit: 930 x 1282 km, 63.7° (Epoch: 19 July)

Event Time Altitude Azimuth Distance (km) Brightness Sun altitude
Rises 20:41:24 0° 319° (NW) 4,214 7.9 -12.3°
Reaches altitude 10° 20:44:32 10° 327° (NNW) 3,211 6.7 -12.6°
Maximum altitude 20:51:41 39° 34° (NE) 1,701 3.9 -13.3°
Drops below altitude 10° 20:58:19 10° 102° (ESE) 2,978 4.6 -14.0°
Enters shadow 20:58:54 - 104° (ESE) 3,160 4.7 -14.0°
